STARLINK-32512, 62027

Orbit data source: Space-Track

STARLINK-32512, 62027 is a payload satellite owned by SpaceX/Seattle (US) in LEO that was launched on Mon, 18 Nov 2024 UTC via an FALCON 9 launch vehicle from the Air Force Western Test Range (AFWTR). Payload-class satellites include a variety of spacecraft equipped with specific instruments for various scientific and technological missions. These include communications satellites like Starlink; space stations such as the ISS; scientific satellites like the Hubble; Earth observation satellites from companies like Planet Labs, Umbra, and HawkEye 360; GPS; miniature CubeSats for education and research; and military/defense satellites.

Loading next visibility...
Identifier
62027, 2024-213V
Orbit
LEO
Country
Flag of USUS
Related business
Manufacturer
SpaceX/Seattle
Mission
Operational Commercial Communications
Bus & Motor
STARLINK V2M, Unknown motor
Mass
730 kg wet, ~700 kg dry
Launch date (UTC)
2024-11-18 (1 year ago)
Launch vehicle
FALCON 9
Launch site
Air Force Western Test Range (AFWTR)
Object type
Payload
Rocket body
Debris
Shape & HBR
Box + 2 Pan, 17.7 m
Radar Cross Section
33.884 m², Large (>1 m²)

Expand to show TLE details & history
Last TLE update: 14 hours ago

TLE from 14 hours ago
0 STARLINK-32512
1 62027U 24213V   26038.16056896  .00043716  00000-0  14791-2 0  9994
2 62027  53.1595 309.7176 0001316  70.4943 289.6200 15.30208495 68488
Epoch: 2026-02-07T03:51Z
TLE epoch observation values (Epoch: 2026-02-07T03:51:13.158Z)
Latitude
0.00001°
Longitude
114.62471°
Altitude
475.787 km
Speed
7.629 km/s
True Right ascension
20h 38m 52s
True Declination
0° 00' 00"
Sunlit
Object was in daylight at epoch
Visualization orbit readout
Latitude
Unknown
Longitude
Unknown
Altitude
Unknown
Speed
Unknown
Apparent Right ascension
Unknown
Apparent Declination
Unknown
Sunlit
N/A
Visualization observer readout
Local Sidereal Time
20:08:35
Azimuth
Unknown
Elevation
Unknown
Doppler factor
Unknown
Orbital elements
Apogee altitude
476.348 km
Perigee altitude
474.544 km
Semi-major axis
6,853.583 km
Eccentricity
0.00013
Inclination
53.1595°
RAAN
309.7176°
Arg. of periapsis
70.4943°
True anomaly
289.60579°
Mean anomaly
289.62°
Eccentric anomaly
289.6129°
Mean motion
3.82531 °/min
Orbital period
94.11 mins
BSTAR
0.0014791
Loading maneuver chart data...
Computing Atmospheric mass density...
Loading historical data...
Loading historical data...
Loading historical data...
Loading historical data...
Loading historical data...
Loading historical data...
Loading historical data...

Documentation

Showing up to 5 results
|